Vorticity
9 9 10 7 6 7 4 5 4 5 4 4 6 4 8 3 4 2 -1 6 9 16 17 8 10 5 14 13 11 16 18 10 3 1 5 3 3 13 5 7 8 16 7 9 0
10 9 10 9 6 7 6 3 5 4 4 2 4 5 7 -2 -6 -2 -3 5 2 8 -0 7 20 9 7 12 12 8 10 9 16 10 15 6 2 -1 14 9 13 13 6 4 5
11 10 10 10 7 7 7 4 4 5 3 2 2 6 6 3 0 -2 -3 -0 1 2 -2 10 11 3 4 10 21 -5 6 5 2 9 7 16 -0 0 7 7 14 21 6 5 5
8 11 10 11 10 7 7 6 3 7 2 3 0 4 5 7 -3 2 4 4 1 3 1 15 15 3 14 11 6 10 4 5 7 4 12 5 10 13 -4 8 15 14 11 7 3
7 9 11 10 12 9 7 8 6 3 0 2 2 1 4 2 6 1 1 3 1 3 2 8 7 3 -2 13 11 16 6 10 6 -2 10 5 10 5 4 11 13 14 14 -1 -0
7 7 9 11 11 13 9 7 8 8 5 5 3 1 1 3 5 2 1 -2 -2 1 3 -0 0 13 -3 13 -20 17 -5 2 12 7 4 3 5 8 9 9 13 12 1 2 -0
8 8 8 9 11 12 12 8 6 7 10 5 -0 5 2 -1 3 2 2 -0 -1 -1 1 0 1 5 18 20 16 7 -1 2 3 9 5 8 7 9 11 9 14 11 10 12 6
7 8 8 8 10 12 13 11 7 6 9 7 3 1 3 9 -5 -1 0 2 -2 -1 -0 3 4 5 8 11 4 2 7 -1 0 3 10 -1 9 4 8 9 12 12 9 15 12
8 8 8 9 8 11 13 13 10 7 6 10 8 5 -5 -5 14 11 -1 -2 1 1 0 -2 6 13 12 7 8 2 -2 0 14 5 9 -3 8 6 8 5 4 7 9 5 15
9 8 8 9 10 8 11 13 14 9 7 6 7 8 -0 10 -6 -7 6 5 2 5 1 -0 9 7 1 -8 -4 5 15 1 -5 2 17 3 5 6 3 8 8 8 3 3 5
9 9 9 9 10 9 9 10 14 13 7 4 11 6 37 -1 11 -3 -0 5 -2 1 3 15 6 7 -2 1 10 22 14 16 12 2 6 12 3 2 -1 7 15 8 9 5 8
7 9 9 11 11 10 6 9 9 19 13 7 4 13 -7 7 -1 12 5 5 3 7 7 11 14 3 -1 13 10 5 27 20 22 22 8 -0 9 6 9 -2 -9 -0 5 11 2
6 7 9 10 12 11 7 7 8 8 11 23 7 1 19 -4 22 3 8 5 9 8 10 10 4 1 11 5 7 8 37 12 9 18 1 9 6 8 4 3 5 7 5 14 5
8 6 8 9 11 10 8 5 5 6 13 29 27 12 5 4 -7 14 6 12 11 19 13 21 -8 8 12 -1 9 29 6 3 3 18 -8 7 6 20 2 4 5 9 7 -0 -2
10 8 7 8 10 13 7 5 5 6 12 16 31 14 19 2 -8 9 5 4 12 7 -6 11 17 -4 16 17 20 1 5 7 6 12 10 18 -14 15 26 11 12 6 8 11 -5
9 11 9 9 9 13 9 7 7 4 16 12 24 24 25 10 6 -3 22 6 10 4 -1 0 4 -3 2 -1 12 6 1 4 23 19 10 18 -5 17 6 30 8 6 5 4 19
11 10 12 8 9 12 14 2 3 -4 11 21 19 9 13 23 3 -14 31 9 -2 13 5 5 4 2 -2 -2 1 5 -4 11 5 14 -1 9 37 -44 14 7 12 4 6 8 12
12 11 15 12 8 12 14 14 -3 22 -33 -19 32 26 10 19 5 18 -17 17 5 -16 7 19 34 -2 -4 10 -3 12 10 -6 10 7 2 21 14 27 9 9 8 1 12 -14 32
12 16 16 14 11 10 13 -3 9 15 14 5 1 20 14 18 0 -1 5 7 5 5 -15 15 13 7 13 7 3 11 5 10 1 13 15 6 21 14 7 7 14 15 -3 3 5
15 13 14 15 15 12 13 -7 -3 -24 7 23 9 11 28 13 16 7 -6 41 6 7 8 8 19 5 15 1 -4 16 23 11 12 0 7 20 20 3 -3 3 7 3 1 5 4
13 18 19 15 19 14 6 -13 15 -20 -4 -0 10 13 8 31 10 7 28 -54 46 16 2 7 -31 11 3 39 21 9 1 -11 8 1 7 6 34 -3 4 5 11 1 -1 4 2
11 20 14 18 16 18 9 9 8 15 -22 -5 0 11 23 9 32 10 2 10 42 45 8 11 -3 24 4 -22 12 19 5 11 -2 18 4 2 19 22 8 4 1 4 0 3 1
15 15 18 13 17 14 15 11 14 5 3 7 -8 10 17 2 12 24 24 28 -14 20 35 6 13 3 36 16 17 3 11 15 5 -5 9 -8 23 17 6 1 1 1 4 2 2
15 10 13 17 22 13 37 12 18 17 22 14 8 7 -13 -1 9 7 17 26 30 1 -1 19 8 -15 -30 -2 6 14 23 16 20 8 10 -8 13 22 -0 -1 2 4 6 -2 -2
17 15 13 -5 18 2 -18 18 25 18 20 23 23 11 16 19 1 22 -1 10 22 0 12 28 -3 12 2 -2 -4 14 20 12 -11 -9 18 -2 12 17 16 10 -3 1 3 2 1
15 12 13 10 -3 23 26 5 -4 7 20 5 8 14 22 9 3 20 13 13 15 21 34 19 1 7 16 2 5 12 15 -17 -1 -2 5 14 8 25 21 10 -1 9 0 3 2
18 16 12 11 18 1 11 8 12 7 14 24 10 7 -0 9 14 6 -8 3 1 1 1 35 16 9 1 2 31 23 2 7 4 7 3 9 27 17 23 6 -1 12 3 4 6
Height
3187 3188 3190 3192 3194 3196 3198 3199 3201 3201 3202 3203 3203 3203 3204 3204 3205 3206 3206 3206 3204 3203 3203 3203 3203 3202 3201 3200 3200 3200 3200 3200 3200 3199 3201 3200 3201 3200 3202 3203 3203 3203 3205 3206 3205
3187 3188 3190 3192 3194 3196 3198 3200 3201 3202 3202 3204 3206 3206 3207 3207 3208 3208 3209 3208 3207 3206 3205 3205 3204 3203 3203 3203 3203 3203 3202 3202 3202 3202 3202 3203 3203 3203 3204 3204 3205 3205 3207 3207 3208
3187 3188 3190 3191 3193 3195 3197 3199 3201 3203 3204 3204 3207 3208 3209 3209 3210 3210 3210 3210 3210 3210 3209 3208 3207 3206 3206 3206 3206 3205 3205 3205 3204 3204 3205 3205 3205 3206 3206 3207 3208 3208 3209 3209 3210
3187 3188 3189 3190 3192 3194 3197 3199 3201 3203 3204 3205 3207 3209 3210 3211 3213 3211 3212 3213 3213 3212 3212 3210 3210 3209 3209 3209 3208 3208 3208 3208 3207 3207 3208 3207 3207 3208 3208 3210 3210 3211 3213 3212 3213
3187 3187 3188 3189 3191 3193 3195 3198 3200 3202 3204 3206 3206 3208 3210 3212 3213 3213 3213 3214 3214 3214 3213 3214 3213 3212 3211 3211 3212 3211 3211 3211 3210 3210 3210 3209 3209 3210 3210 3211 3212 3213 3215 3214 3215
3186 3186 3187 3188 3189 3192 3194 3196 3199 3201 3203 3205 3207 3208 3210 3213 3212 3213 3214 3215 3215 3216 3215 3214 3215 3214 3214 3213 3213 3215 3213 3213 3213 3212 3213 3213 3212 3212 3213 3212 3214 3215 3217 3217 3217
3185 3186 3186 3186 3188 3189 3192 3195 3197 3200 3202 3204 3206 3208 3210 3212 3212 3213 3214 3215 3216 3216 3217 3216 3215 3215 3214 3214 3213 3216 3215 3214 3214 3215 3215 3214 3216 3215 3214 3213 3215 3215 3217 3219 3219
3183 3184 3185 3186 3186 3187 3189 3192 3195 3197 3200 3202 3205 3207 3209 3211 3211 3212 3214 3214 3215 3216 3217 3216 3216 3216 3216 3214 3214 3215 3216 3216 3216 3217 3217 3217 3217 3216 3216 3215 3216 3216 3217 3219 3221
3182 3183 3184 3184 3185 3186 3186 3189 3192 3194 3197 3200 3203 3205 3208 3210 3211 3211 3212 3214 3214 3215 3216 3215 3216 3216 3216 3216 3217 3216 3216 3217 3217 3217 3218 3218 3218 3219 3218 3218 3218 3217 3218 3220 3221
3181 3181 3182 3182 3183 3184 3184 3185 3188 3191 3194 3197 3200 3205 3205 3207 3208 3211 3212 3213 3213 3214 3215 3215 3215 3216 3216 3217 3216 3216 3215 3215 3217 3218 3219 3218 3219 3220 3220 3220 3220 3219 3219 3220 3222
3179 3180 3180 3180 3181 3182 3183 3184 3188 3190 3190 3193 3196 3198 3201 3203 3206 3208 3209 3211 3211 3213 3213 3215 3214 3214 3216 3214 3212 3212 3212 3213 3215 3218 3220 3220 3220 3221 3221 3221 3221 3221 3221 3222 3222
3177 3178 3178 3179 3179 3179 3181 3182 3183 3186 3187 3189 3192 3195 3198 3200 3203 3205 3207 3208 3208 3209 3212 3214 3212 3214 3213 3212 3211 3209 3210 3212 3214 3216 3220 3220 3220 3220 3220 3221 3222 3222 3223 3223 3222
3175 3175 3176 3177 3178 3178 3178 3180 3181 3182 3183 3185 3186 3190 3194 3197 3198 3201 3204 3205 3206 3208 3210 3209 3211 3211 3210 3211 3211 3209 3209 3211 3214 3215 3217 3219 3219 3218 3218 3219 3220 3221 3222 3221 3222
3172 3173 3174 3175 3178 3176 3177 3178 3179 3181 3181 3179 3179 3184 3188 3192 3194 3198 3199 3202 3203 3204 3206 3207 3208 3209 3209 3210 3211 3210 3211 3212 3213 3214 3216 3218 3218 3215 3216 3217 3217 3219 3219 3221 3222
3169 3170 3171 3173 3174 3174 3177 3177 3179 3181 3180 3174 3173 3176 3180 3186 3190 3193 3196 3198 3199 3202 3205 3207 3207 3208 3209 3211 3211 3213 3212 3213 3213 3213 3214 3215 3218 3212 3212 3214 3215 3216 3217 3220 3221
3164 3167 3168 3170 3171 3172 3173 3175 3179 3183 3174 3170 3170 3171 3175 3180 3186 3189 3191 3195 3198 3199 3200 3202 3204 3207 3208 3209 3210 3211 3211 3211 3211 3212 3213 3212 3215 3210 3210 3211 3214 3216 3216 3218 3219
3159 3161 3165 3166 3168 3169 3171 3174 3179 3175 3170 3170 3168 3169 3172 3175 3181 3185 3186 3189 3192 3196 3197 3199 3201 3204 3205 3207 3208 3209 3210 3210 3212 3213 3211 3210 3212 3207 3209 3211 3213 3215 3216 3217 3217
3155 3156 3159 3161 3163 3165 3168 3173 3171 3166 3167 3167 3167 3168 3169 3173 3177 3181 3184 3185 3189 3192 3196 3197 3199 3201 3203 3204 3206 3206 3207 3208 3212 3213 3209 3208 3207 3206 3208 3209 3211 3213 3215 3215 3213
3151 3152 3155 3154 3156 3160 3165 3165 3161 3163 3162 3164 3165 3165 3167 3170 3174 3178 3180 3182 3186 3189 3193 3193 3194 3198 3200 3201 3203 3203 3203 3206 3206 3207 3208 3207 3206 3205 3206 3208 3210 3212 3214 3214 3212
3145 3147 3149 3149 3150 3154 3157 3155 3157 3159 3160 3161 3162 3162 3163 3166 3170 3173 3176 3176 3181 3185 3189 3192 3192 3194 3196 3197 3197 3199 3201 3203 3204 3207 3208 3205 3204 3202 3205 3207 3209 3211 3213 3213 3212
3140 3142 3143 3144 3146 3148 3145 3146 3151 3157 3158 3159 3159 3160 3161 3163 3166 3167 3170 3175 3177 3181 3185 3189 3191 3191 3192 3191 3191 3195 3196 3198 3200 3201 3202 3205 3201 3200 3203 3206 3209 3210 3212 3212 3211
3136 3138 3137 3138 3141 3139 3139 3142 3148 3150 3155 3156 3156 3157 3158 3160 3161 3163 3166 3171 3174 3177 3180 3184 3187 3185 3186 3190 3190 3192 3193 3195 3197 3198 3197 3197 3196 3197 3202 3205 3208 3209 3211 3211 3210
3132 3132 3132 3133 3133 3134 3136 3138 3142 3145 3149 3152 3153 3155 3156 3157 3159 3159 3161 3166 3169 3172 3175 3180 3181 3183 3182 3185 3184 3186 3189 3191 3193 3194 3194 3194 3193 3194 3199 3202 3205 3206 3209 3209 3209
3129 3129 3127 3127 3129 3130 3131 3133 3137 3140 3142 3145 3145 3149 3151 3153 3156 3156 3157 3160 3163 3167 3172 3174 3176 3176 3176 3178 3182 3183 3184 3186 3188 3190 3190 3189 3189 3192 3194 3197 3200 3202 3205 3207 3208
3125 3124 3124 3123 3125 3126 3127 3129 3131 3133 3135 3137 3139 3142 3147 3149 3150 3150 3154 3157 3159 3162 3164 3165 3168 3172 3173 3175 3178 3180 3181 3181 3183 3186 3187 3189 3187 3188 3189 3191 3196 3199 3202 3204 3205
3121 3120 3120 3120 3122 3122 3123 3125 3128 3129 3129 3131 3132 3139 3141 3142 3145 3147 3150 3152 3154 3155 3156 3158 3162 3167 3169 3170 3173 3174 3176 3177 3179 3180 3181 3183 3184 3185 3188 3191 3193 3195 3198 3200 3201
3116 3115 3114 3116 3117 3119 3119 3121 3123 3122 3124 3126 3129 3133 3135 3139 3142 3144 3145 3147 3150 3151 3152 3153 3156 3160 3164 3166 3169 3167 3170 3173 3173 3173 3175 3175 3177 3179 3182 3185 3188 3191 3195 3197 3197